DW3884 Weather Reports


time (UTC)temp
C
wind
direction
speed
KPH
gust
KPH
rain 1hr
cm
rain 24hr
cm
rain mn
cm
humidity
%
barometer
mb
20260503211022 27 140 3.2 6.4 0.00 0.00 0.00 55 1010.3
20260503210511 27 65 3.2 8.0 0.00 0.00 0.00 52 1010.3
20260503210005 26 67 3.2 8.0 0.00 0.00 0.00 55 1010.4
20260503205541 26 52 1.6 6.4 0.00 0.00 0.00 54 1010.5
20260503204446 26 55 1.6 8.0 0.00 0.00 0.00 55 1010.5
20260503203940 26 317 3.2 8.0 0.00 0.00 0.00 53 1010.6
20260503203434 26 161 1.6 6.4 0.00 0.00 0.00 53 1010.7
20260503202929 26 155 1.6 6.4 0.00 0.00 0.00 56 1010.7
20260503202423 26 51 1.6 6.4 0.00 0.00 0.00 53 1010.8
20260503201917 26 45 1.6 6.4 0.00 0.00 0.00 55 1010.8
20260503201411 26 177 1.6 6.4 0.00 0.00 0.00 55 1010.9
20260503200905 26 176 1.6 6.4 0.00 0.00 0.00 57 1010.9
20260503200359 26 85 1.6 6.4 0.00 0.00 0.00 56 1011.0
20260503195853 26 53 1.6 8.0 0.00 0.00 0.00 56 1011.1
20260503195346 26 195 1.6 8.0 0.00 0.00 0.00 55 1011.2
20260503194841 26 92 1.6 11.3 0.00 0.00 0.00 57 1011.2
20260503194335 26 99 1.6 11.3 0.00 0.00 0.00 55 1011.3
20260503194047 26 64 1.6 8.0 0.00 0.00 0.00 55 1011.3
20260503193323 25 79 1.6 8.0 0.00 0.00 0.00 56 1011.4
20260503192817 25 308 1.6 6.4 0.00 0.00 0.00 57 1011.5
20260503192311 25 59 3.2 6.4 0.00 0.00 0.00 56 1011.6
20260503191858 26 10 3.2 6.4 0.00 0.00 0.00 57 1011.6
20260503190754 26 227 1.6 4.8 0.00 0.00 0.00 55 1011.8
20260503190247 25 33 1.6 4.8 0.00 0.00 0.00 57 1011.8
20260503185741 25 129 1.6 4.8 0.00 0.00 0.00 59 1011.9
20260503185236 25 166 1.6 4.8 0.00 0.00 0.00 57 1011.9
20260503184728 25 184 1.6 4.8 0.00 0.00 0.00 61 1012.0
20260503184223 25 29 1.6 4.8 0.00 0.00 0.00 58 1012.1
20260503183717 25 129 1.6 4.8 0.00 0.00 0.00 59 1012.1
20260503183211 25 323 1.6 9.7 0.00 0.00 0.00 59 1012.2
20260503182704 25 41 1.6 9.7 0.00 0.00 0.00 58 1012.2
20260503182159 24 60 1.6 4.8 0.00 0.00 0.00 58 1012.2
20260503181653 24 70 1.6 4.8 0.00 0.00 0.00 60 1012.2
20260503181412 24 65 1.6 6.4 0.00 0.00 0.00 61 1012.3
20260503180641 23 79 1.6 6.4 0.00 0.00 0.00 63 1012.2
20260503180134 23 60 1.6 4.8 0.00 0.00 0.00 65 1012.3
20260503175629 23 98 1.6 4.8 0.00 0.00 0.00 65 1012.4
20260503175123 22 104 0.0 4.8 0.00 0.00 0.00 67 1012.4
20260503174617 22 308 0.0 3.2 0.00 0.00 0.00 68 1012.4
20260503174548 22 156 0.0 6.4 0.00 0.00 0.00 69 1012.5
20260503173605 21 267 1.6 6.4 0.00 0.00 0.00 67 1012.5
20260503173058 21 73 1.6 3.2 0.00 0.00 0.00 68 1012.5
20260503172815 21 64 1.6 4.8 0.00 0.00 0.00 68 1012.6
20260503172047 21 134 1.6 4.8 0.00 0.00 0.00 67 1012.7
20260503171540 21 126 1.6 4.8 0.00 0.00 0.00 67 1012.6
20260503171259 21 32 1.6 4.8 0.00 0.00 0.00 70 1012.7
20260503170529 21 53 0.0 3.2 0.00 0.00 0.00 69 1012.6
20260503150919 12 39 0.0 0.0 0.00 0.00 0.00 94 1013.1
20260503150417 12 39 0.0 0.0 0.00 0.00 0.00 94 1013.1
20260503150134 12 39 0.0 0.0 0.00 0.00 0.00 95 1013.0
20260503131255 11 39 0.0 0.0 0.00 0.00 0.00 94 1013.0
20260503130755 11 39 0.0 0.0 0.00 0.00 0.00 94 1013.0
20260503130255 11 39 0.0 0.0 0.00 0.00 0.00 94 1013.0
20260503110637 12 39 0.0 0.0 0.00 0.00 0.00 92 1013.1
20260503110131 12 39 0.0 0.0 0.00 0.00 0.00 92 1013.1
20260503090413 13 39 0.0 0.0 0.00 0.00 0.00 90 1013.3
20260503081313 13 39 0.0 0.0 0.00 0.00 0.00 89 1013.5
20260503080807 13 39 0.0 0.0 0.00 0.00 0.00 89 1013.5
20260503080300 13 39 0.0 0.0 0.00 0.00 0.00 88 1013.5
20260503072718 14 39 0.0 1.6 0.00 0.00 0.00 87 1013.4
20260503072218 14 39 0.0 1.6 0.00 0.00 0.00 87 1013.4
20260503071718 14 39 0.0 1.6 0.00 0.00 0.00 87 1013.3
20260503071436 14 39 0.0 3.2 0.00 0.00 0.00 86 1013.4
20260503070715 14 39 0.0 3.2 0.00 0.00 0.00 86 1013.4
20260503070215 14 4 0.0 3.2 0.00 0.00 0.00 85 1013.3
20260503060207 16 51 0.0 0.0 0.00 0.00 0.00 82 1013.1
20260503054647 16 51 0.0 0.0 0.00 0.00 0.00 82 1013.0
20260503054142 16 51 0.0 0.0 0.00 0.00 0.00 83 1013.0
20260503053905 16 51 0.0 0.0 0.00 0.00 0.00 83 1012.9
20260503053137 16 51 0.0 0.0 0.00 0.00 0.00 82 1013.0
20260503052635 16 51 0.0 0.0 0.00 0.00 0.00 82 1013.0
20260503052133 16 51 0.0 1.6 0.00 0.00 0.00 81 1013.0
20260503051632 16 51 0.0 1.6 0.00 0.00 0.00 80 1013.0
20260503051129 17 51 0.0 1.6 0.00 0.00 0.00 82 1013.0
20260503050848 17 51 0.0 0.0 0.00 0.00 0.00 82 1013.0
20260503050125 17 51 0.0 0.0 0.00 0.00 0.00 81 1012.9
20260503045625 17 51 0.0 0.0 0.00 0.00 0.00 82 1012.9
20260503045605 17 51 0.0 0.0 0.00 0.00 0.00 81 1012.8
20260503044625 17 51 0.0 0.0 0.00 0.00 0.00 79 1012.8
20260503044128 17 51 0.0 0.0 0.00 0.00 0.00 79 1012.6
20260503043626 17 51 0.0 0.0 0.00 0.00 0.00 79 1012.6
20260503043348 18 51 0.0 0.0 0.00 0.00 0.00 79 1012.6
20260503042625 18 51 0.0 0.0 0.00 0.00 0.00 79 1012.7
20260503042125 18 51 0.0 0.0 0.00 0.00 0.00 78 1012.6
20260503041853 18 51 0.0 0.0 0.00 0.00 0.00 78 1012.5
20260503041125 18 51 0.0 0.0 0.00 0.00 0.00 78 1012.5
20260503040625 18 51 0.0 0.0 0.00 0.00 0.00 78 1012.4
20260503040125 18 51 0.0 1.6 0.00 0.00 0.00 77 1012.4
20260503035624 19 51 0.0 1.6 0.00 0.00 0.00 77 1012.2
20260503035349 19 51 0.0 1.6 0.00 0.00 0.00 77 1012.1
20260503034624 19 51 0.0 1.6 0.00 0.00 0.00 76 1012.0
20260503034124 19 51 0.0 0.0 0.00 0.00 0.00 75 1012.0
20260503033625 20 51 0.0 1.6 0.00 0.00 0.00 75 1012.0
20260503033121 20 51 0.0 1.6 0.00 0.00 0.00 73 1011.9
20260503032621 20 51 0.0 1.6 0.00 0.00 0.00 74 1011.8
20260503032121 20 51 0.0 1.6 0.00 0.00 0.00 75 1011.8
20260503031841 20 51 0.0 0.0 0.00 0.00 0.00 74 1011.8
20260503031118 20 51 0.0 0.0 0.00 0.00 0.00 74 1011.7
20260503030615 20 51 0.0 0.0 0.00 0.00 0.00 73 1011.6
20260503030113 21 51 0.0 1.6 0.00 0.00 0.00 72 1011.5
20260503030050 21 51 0.0 1.6 0.00 0.00 0.00 72 1011.5
20260503025111 21 51 0.0 0.0 0.00 0.00 0.00 71 1011.4
20260503024612 21 51 0.0 1.6 0.00 0.00 0.00 71 1011.4
20260503024110 21 51 0.0 1.6 0.00 0.00 0.00 69 1011.4
20260503023608 21 51 0.0 1.6 0.00 0.00 0.00 69 1011.3
20260503023103 21 51 0.0 1.6 0.00 0.00 0.00 69 1011.4
20260503022604 22 51 0.0 1.6 0.00 0.00 0.00 70 1011.3
20260503022102 22 51 1.6 3.2 0.00 0.00 0.00 68 1011.3
20260503021601 22 48 0.0 3.2 0.00 0.00 0.00 67 1011.2
20260503021330 22 111 0.0 1.6 0.00 0.00 0.00 66 1011.2
20260503020600 22 111 0.0 1.6 0.00 0.00 0.00 65 1011.2
20260503020058 22 111 0.0 3.2 0.00 0.00 0.00 63 1011.2
20260503015820 22 111 1.6 3.2 0.00 0.00 0.00 64 1011.3
20260503015056 22 81 1.6 3.2 0.00 0.00 0.00 62 1011.3
20260503014556 22 91 0.0 4.8 0.00 0.00 0.00 62 1011.3
20260503014326 23 75 1.6 4.8 0.00 0.00 0.00 62 1011.3
20260503013552 23 71 1.6 4.8 0.00 0.00 0.00 61 1011.3
20260503013052 23 43 1.6 4.8 0.00 0.00 0.00 61 1011.3
20260503012550 23 127 1.6 4.8 0.00 0.00 0.00 61 1011.4
20260503012047 23 151 1.6 4.8 0.00 0.00 0.00 61 1011.4
20260503011548 23 323 1.6 4.8 0.00 0.00 0.00 62 1011.3
20260503011043 23 128 1.6 3.2 0.00 0.00 0.00 64 1011.3
20260503010543 23 160 1.6 4.8 0.00 0.00 0.00 62 1011.4
20260503010043 23 70 1.6 4.8 0.00 0.00 0.00 62 1011.3
20260503005544 23 47 0.0 3.2 0.00 0.00 0.00 61 1011.3
20260503005044 23 92 1.6 4.8 0.00 0.00 0.00 61 1011.4
20260503004811 23 79 1.6 4.8 0.00 0.00 0.00 62 1011.4
20260503004314 23 65 0.0 4.8 0.00 0.00 0.00 63 1011.5
20260503003547 23 83 1.6 4.8 0.00 0.00 0.00 63 1011.5
20260503003048 23 88 1.6 4.8 0.00 0.00 0.00 62 1011.5
20260503002543 23 31 1.6 4.8 0.00 0.00 0.00 62 1011.5
20260503002043 23 32 1.6 4.8 0.00 0.00 0.00 63 1011.5
20260503001806 23 77 1.6 9.7 0.00 0.00 0.00 62 1011.6
20260503001039 23 83 1.6 9.7 0.00 0.00 0.00 62 1011.5
20260503000540 23 357 1.6 4.8 0.00 0.00 0.00 63 1011.5
20260503000040 23 73 1.6 4.8 0.00 0.00 0.00 62 1011.6
20260502235540 23 70 1.6 3.2 0.00 0.00 0.00 63 1011.6
20260502235039 23 98 1.6 6.4 0.00 0.00 0.00 63 1011.7
20260502234539 23 106 1.6 6.4 0.00 0.00 0.00 62 1011.7
20260502234036 23 34 1.6 4.8 0.00 0.00 0.00 64 1011.7
20260502233755 23 54 1.6 6.4 0.00 0.00 0.00 62 1011.8
20260502233036 23 22 1.6 6.4 0.00 0.00 0.00 64 1011.9
20260502232535 23 125 3.2 6.4 0.00 0.00 0.00 63 1012.0
20260502232259 23 144 1.6 6.4 0.00 0.00 0.00 64 1012.1
20260502231536 23 79 3.2 9.7 0.00 0.00 0.00 64 1012.2
20260502231303 23 56 3.2 9.7 0.00 0.00 0.00 63 1012.2
20260502230536 23 164 3.2 9.7 0.00 0.00 0.00 63 1012.3
20260502230036 23 71 3.2 8.0 0.00 0.00 0.00 63 1012.4
20260502225532 23 76 3.2 8.0 0.00 0.00 0.00 62 1012.5
20260502225032 23 147 1.6 6.4 0.00 0.00 0.00 64 1012.6
20260502224532 23 147 1.6 6.4 0.00 0.00 0.00 64 1012.6
20260502224251 23 67 3.2 9.7 0.00 0.00 0.00 63 1012.6
20260502223532 23 63 3.2 9.7 0.00 0.00 0.00 62 1012.7
20260502223031 23 60 1.6 6.4 0.00 0.00 0.00 63 1012.7
20260502222755 23 96 3.2 6.4 0.00 0.00 0.00 62 1012.7
20260502222031 23 150 1.6 8.0 0.00 0.00 0.00 64 1012.8
20260502221532 23 136 1.6 8.0 0.00 0.00 0.00 63 1012.9
20260502221249 23 154 1.6 6.4 0.00 0.00 0.00 62 1012.8
20260502220532 23 63 1.6 4.8 0.00 0.00 0.00 62 1012.8
20260502220032 23 181 1.6 9.7 0.00 0.00 0.00 63 1012.9
20260502215531 23 36 1.6 9.7 0.00 0.00 0.00 61 1013.0
20260502215032 23 174 3.2 6.4 0.00 0.00 0.00 63 1013.0
20260502214532 23 75 3.2 6.4 0.00 0.00 0.00 62 1013.2
20260502214031 23 28 1.6 6.4 0.00 0.00 0.00 63 1013.2
20260502213755 23 58 1.6 6.4 0.00 0.00 0.00 63 1013.2
20260502213032 23 102 3.2 6.4 0.00 0.00 0.00 62 1013.3
20260502212532 23 51 1.6 6.4 0.00 0.00 0.00 62 1013.4
20260502212032 23 75 0.0 4.8 0.00 0.00 0.00 66 1013.4
20260502211532 23 31 1.6 8.0 0.00 0.00 0.00 64 1013.4